Temp
14 14 14 14 14 14 14 14 14 14 14 15 15 15 14 14 14 14 14 14 14 14 14 14 14 14 14 14 14 14 15 15 15 14 14 14 14 14 14 14 14 14 13 13 13 13 14 14 13 13 13 13 12 12 12 12 12 12 12 12 12 12 12 12 12 12 12 12 12
14 14 14 14 14 14 14 14 14 14 14 15 15 15 14 14 14 14 14 14 14 14 14 14 14 14 14 14 14 14 14 14 14 14 13 13 13 14 14 14 14 14 14 13 13 13 13 13 13 13 13 13 12 12 12 12 12 12 12 11 12 12 12 12 12 12 12 12 12
14 14 14 14 14 14 14 14 14 14 14 14 14 14 14 14 14 14 14 14 14 14 14 14 14 14 14 14 14 14 14 14 14 13 13 13 13 13 13 14 14 14 14 14 13 13 13 13 13 13 13 13 13 13 13 13 12 12 11 11 11 11 12 12 12 11 11 11 11
14 14 14 14 14 14 14 14 14 14 14 14 14 14 14 14 14 14 14 14 14 14 14 14 14 14 14 14 14 14 14 14 13 13 13 13 13 13 13 13 13 13 14 14 13 13 13 13 13 13 12 12 13 13 13 13 12 12 12 12 12 12 11 11 11 11 10 10 10
14 14 14 14 14 14 14 14 14 14 14 14 14 14 14 14 14 14 14 14 14 14 14 14 14 14 14 14 14 14 13 13 13 13 13 13 13 13 13 13 13 13 13 13 13 13 13 13 13 13 12 12 12 12 12 12 12 12 12 12 12 12 11 11 10 10 10 10 9
15 15 15 14 14 14 14 14 14 14 14 14 14 14 14 14 14 14 14 13 13 13 13 13 13 13 13 13 13 13 13 13 13 13 13 13 13 13 14 14 13 13 13 13 13 13 13 13 13 13 12 12 12 12 12 12 11 11 11 12 12 11 11 10 10 10 9 9 9
15 15 15 15 15 15 14 14 14 14 13 13 13 13 14 14 14 14 14 13 13 13 13 13 13 13 13 13 13 13 13 13 13 13 12 13 13 13 13 14 13 13 13 13 13 13 13 13 13 12 12 12 12 11 11 11 11 11 11 11 11 11 10 10 9 9 9 9 9
15 15 15 15 15 15 15 15 14 14 13 13 13 13 13 13 13 13 13 13 13 13 13 13 13 13 13 13 13 13 13 13 13 12 12 12 12 12 13 13 13 13 13 13 13 13 13 13 13 12 12 11 11 11 11 11 11 11 11 11 10 10 10 9 9 9 9 9 9
15 15 15 15 15 15 15 15 15 14 14 14 14 14 14 13 13 13 13 13 13 13 13 13 13 13 13 13 13 13 13 13 13 13 13 12 12 12 12 12 12 12 12 12 13 13 13 13 13 12 12 11 11 11 11 11 11 11 11 10 10 9 9 9 9 8 8 9 9
15 15 15 15 15 15 15 15 15 14 14 14 14 14 14 14 14 13 13 13 13 13 13 13 13 13 13 13 13 13 13 13 14 13 13 13 13 13 13 12 12 12 12 12 12 12 12 12 12 12 12 12 12 11 11 11 11 11 10 10 10 9 9 9 8 8 8 8 8
14 15 15 15 15 15 15 15 15 14 14 14 14 14 14 14 14 13 13 13 13 13 12 12 12 13 13 13 13 13 13 13 13 13 13 13 13 13 13 13 13 12 12 12 11 11 11 11 12 12 12 12 12 12 11 11 11 10 10 10 9 9 9 9 9 8 8 8 8
14 14 14 15 15 15 15 15 15 15 15 14 14 14 14 14 13 13 13 13 13 13 12 12 12 12 12 12 13 13 13 13 13 13 13 13 13 13 13 13 13 13 13 12 12 12 11 11 11 11 11 11 11 11 11 11 11 10 10 9 9 9 8 8 8 8 8 7 7
14 14 14 14 14 14 15 15 15 15 15 14 14 14 14 14 13 13 13 13 13 13 12 12 12 12 12 12 12 12 12 12 13 13 13 13 13 12 12 12 12 13 13 13 13 12 12 11 11 11 11 11 11 11 11 11 10 10 9 9 9 8 8 8 8 8 7 7 7
14 14 14 14 14 14 14 14 14 14 14 14 14 14 14 14 14 13 13 13 13 12 12 12 12 12 12 12 12 12 12 12 12 12 12 12 12 12 12 12 12 12 12 12 12 12 12 11 11 11 11 11 10 10 11 10 10 10 9 9 8 8 8 7 7 7 7 7 7
13 13 14 14 14 14 14 14 13 13 14 14 14 14 14 14 14 14 13 13 13 12 12 12 12 12 12 12 11 11 11 11 11 11 11 11 11 11 11 12 12 12 12 12 12 12 11 11 11 11 10 10 10 10 10 10 9 9 9 9 8 8 8 7 7 7 7 6 6
12 13 13 13 13 13 13 13 13 13 13 13 13 13 13 13 13 13 13 13 13 12 12 12 12 11 11 11 11 11 11 11 10 10 10 11 11 11 11 11 11 11 11 11 11 11 11 11 10 10 10 9 9 9 9 9 9 8 8 8 8 8 7 7 7 7 6 6 6
12 12 12 12 13 13 13 13 13 13 13 13 13 13 13 13 13 13 13 13 13 12 12 12 11 11 11 11 11 11 11 10 10 10 10 10 10 10 10 10 11 11 11 11 11 11 10 10 10 9 9 9 9 9 9 8 8 8 8 8 7 7 7 7 6 6 6 6 5
11 12 12 12 12 12 12 12 12 12 13 13 13 13 13 13 12 12 12 12 12 12 12 12 11 11 11 11 11 11 11 11 10 10 10 10 10 10 10 10 10 10 10 10 10 10 10 10 9 9 9 8 8 8 8 8 8 7 7 7 7 7 7 6 6 6 6 5 5
11 11 11 11 12 12 12 12 12 12 12 13 13 13 13 13 13 12 12 12 11 11 11 11 11 11 11 11 11 11 11 11 11 11 10 10 10 10 10 10 10 10 10 10 10 10 10 9 9 9 8 8 8 8 8 8 7 7 7 7 7 6 6 6 6 5 5 5 5
10 11 11 11 11 12 12 12 12 12 12 12 13 13 13 13 13 12 12 12 11 11 10 10 10 11 11 11 11 11 11 11 11 11 10 10 10 10 10 10 10 10 10 9 9 9 9 9 9 8 8 8 8 8 7 7 7 7 7 7 6 6 6 6 5 5 5 5 5
10 10 11 11 11 11 12 12 12 12 12 12 12 12 12 12 12 12 12 12 11 11 10 10 10 10 10 10 10 11 11 10 10 10 10 10 10 10 10 10 10 9 9 9 9 9 9 8 8 8 8 8 8 7 7 7 7 7 6 6 6 6 6 5 5 5 5 5 4
10 10 11 11 11 11 12 12 12 12 12 12 12 12 12 12 12 12 12 11 11 11 10 10 10 10 10 10 10 10 10 10 10 10 10 10 10 10 10 9 9 9 9 9 9 8 8 8 8 8 8 7 7 7 7 7 7 6 6 6 6 6 5 5 5 5 4 4 4
10 10 10 11 11 11 12 12 12 12 12 12 12 12 12 12 11 11 11 11 11 11 11 10 10 9 9 9 9 10 10 10 10 10 10 10 9 9 9 9 9 9 8 8 8 8 8 8 8 7 7 7 7 7 7 7 6 6 6 6 6 5 5 5 5 4 4 4 4
9 9 10 10 10 11 11 11 11 11 11 11 11 11 11 11 11 11 11 11 11 11 11 10 10 9 9 9 9 9 9 9 9 10 10 10 9 9 9 9 8 8 8 8 8 7 7 7 7 7 7 7 7 6 6 6 6 6 6 5 5 5 5 5 4 4 4 4 4
9 9 9 9 9 10 10 10 10 10 10 10 10 10 10 10 11 11 11 11 11 11 11 10 9 9 9 9 9 9 9 9 9 9 9 10 9 9 9 9 8 8 7 7 7 7 7 7 7 7 7 6 6 6 6 6 6 6 5 5 5 5 5 5 5 4 4 4 4
8 9 9 9 9 9 9 9 9 9 10 10 10 10 10 10 10 10 10 10 10 10 10 10 9 8 8 8 8 8 9 9 9 9 9 9 9 9 9 8 8 7 7 7 7 7 7 7 7 6 6 6 6 6 6 6 5 5 5 5 5 5 5 5 5 5 4 4 4
8 8 8 8 8 8 8 9 9 9 9 9 9 9 9 9 9 9 9 9 9 10 10 9 8 8 7 7 8 8 8 8 9 9 9 9 9 9 8 8 8 7 7 7 7 7 7 7 6 6 6 6 6 6 5 5 5 5 5 5 5 5 5 5 5 5 4 4 4
7 7 8 8 8 8 8 8 8 8 9 9 9 9 9 9 8 8 8 8 8 8 8 8 7 7 7 7 7 8 8 8 8 8 8 8 8 8 8 8 8 7 7 7 7 7 6 6 6 6 6 6 6 5 5 5 5 5 5 5 5 5 5 5 4 4 4 4 3
6 7 7 7 7 7 8 8 8 8 8 8 8 9 9 8 8 8 8 8 7 7 7 7 7 6 6 7 7 7 7 8 8 8 8 8 8 8 8 8 8 7 7 7 7 7 6 6 6 6 6 6 5 5 5 5 5 5 5 4 4 4 4 4 4 4 3 3 3
6 6 6 6 6 7 7 7 7 7 7 7 8 8 8 8 8 8 7 7 7 6 6 6 6 6 6 6 7 7 7 7 7 8 8 7 7 7 8 8 8 7 7 7 7 7 6 6 6 6 6 5 5 5 5 5 5 4 4 4 4 4 4 4 3 3 3 3 3
5 5 5 6 6 6 6 6 6 6 7 7 7 7 7 7 8 7 7 7 6 6 6 6 6 6 6 6 6 7 7 7 7 7 7 7 7 7 7 7 7 7 7 7 7 7 6 6 6 6 5 5 5 5 5 5 4 4 4 4 4 4 4 3 3 3 3 3 3
5 5 5 5 5 5 5 6 6 6 6 6 6 6 6 7 7 7 7 7 6 6 5 5 5 5 6 6 6 6 7 7 7 7 7 7 7 7 7 7 7 7 7 7 7 7 6 6 5 5 5 5 5 5 5 4 4 4 4 4 4 4 3 3 3 3 3 3 3
5 5 5 5 5 5 5 5 5 5 5 5 6 6 6 6 6 7 7 6 6 6 5 5 5 5 5 6 6 6 6 7 7 7 7 7 7 7 7 7 7 7 7 7 7 6 6 5 5 5 5 5 5 5 4 4 4 4 4 4 3 3 3 3 3 3 3 3 3
4 4 4 4 4 4 4 5 5 5 5 5 5 5 6 6 6 6 6 6 6 5 5 5 5 5 5 5 6 6 6 6 6 6 6 6 6 7 7 7 6 6 7 7 7 6 6 5 5 5 5 5 5 4 4 4 4 4 3 3 3 3 3 3 3 3 3 3 3
4 4 4 4 4 4 4 4 4 4 5 5 5 5 5 6 6 6 6 6 5 5 5 5 5 5 5 5 5 6 6 6 6 6 6 6 6 6 6 6 6 6 7 7 7 6 6 5 5 5 5 4 4 4 4 4 3 3 3 3 3 3 3 3 3 3 3 3 3
3 3 3 3 3 4 4 4 4 4 4 4 5 5 5 6 6 6 6 6 5 5 5 5 5 5 5 5 5 5 5 6 6 6 6 6 6 6 6 6 6 6 6 7 7 6 6 5 5 4 4 4 4 4 4 3 3 3 3 3 3 3 3 3 3 2 2 2 2
3 3 3 3 3 3 3 3 4 4 4 4 4 5 5 5 5 6 6 5 5 5 4 5 5 5 5 5 5 5 5 5 5 5 6 6 5 5 5 5 5 6 6 7 6 6 5 5 4 4 4 4 4 4 3 3 3 3 3 3 3 3 3 3 2 2 2 2 2
2 2 3 3 3 3 3 3 3 3 4 4 4 4 5 5 5 5 5 5 5 5 4 4 4 5 5 5 5 4 4 5 5 5 5 5 5 5 5 5 5 5 6 6 6 6 5 5 4 4 4 4 4 3 3 3 3 3 3 3 3 3 2 2 2 2 2 2 2
2 2 2 2 2 3 3 3 3 3 4 4 4 4 4 5 5 5 5 5 5 4 4 4 4 4 5 5 4 4 4 4 4 4 4 5 5 5 5 5 5 5 6 6 6 6 5 5 4 4 4 4 3 3 3 3 3 3 3 3 2 2 2 2 2 2 2 2 3
2 2 2 2 2 2 3 3 3 3 3 4 4 4 4 4 4 5 5 4 4 4 4 4 4 4 4 4 4 4 4 4 4 4 4 4 4 4 4 5 5 5 5 6 6 6 5 5 4 4 4 3 3 3 3 3 3 3 3 2 2 2 2 2 2 2 2 2 2
2 2 2 2 2 3 3 3 3 3 4 4 4 4 4 4 4 4 4 4 4 4 4 4 4 4 4 4 4 4 4 4 4 4 4 4 4 4 4 4 4 4 5 5 5 5 5 5 4 4 4 3 3 3 3 3 3 3 2 2 2 2 2 1 1 2 2 2 2
Height
798 798 798 798 798 798 798 797 797 796 796 796 796 796 796 796 795 795 795 794 794 793 792 792 791 791 791 790 790 790 789 788 788 788 788 788 789 789 789 789 790 791 793 794 795 795 796 796 798 799 800 801 802 802 802 801 801 801 801 801 801 801 801 801 801 801 801 800 800
797 797 797 797 797 797 797 796 796 795 795 795 795 794 794 794 794 793 793 792 791 791 791 791 790 790 789 789 789 789 788 788 788 788 788 788 788 789 789 789 789 789 791 793 795 795 795 795 796 797 798 799 800 801 800 800 800 800 801 801 801 801 801 801 800 800 800 799 799
796 796 796 796 796 796 796 795 795 794 794 794 794 793 793 793 792 792 791 791 791 790 790 789 789 789 788 788 788 788 787 787 787 787 788 788 788 788 789 789 788 788 789 791 793 794 794 794 794 795 796 796 797 798 799 799 799 800 800 800 800 800 800 800 799 799 799 799 798
796 796 796 796 795 795 795 794 794 794 794 793 793 793 792 792 791 791 791 790 790 789 789 788 788 788 787 787 787 787 787 787 787 787 787 787 788 788 788 789 788 788 788 789 790 791 791 792 793 793 794 795 795 796 797 797 798 798 798 799 799 799 799 798 798 798 798 798 798
795 795 795 795 795 794 794 794 794 793 793 793 792 791 791 791 790 790 789 789 788 788 788 788 787 787 786 786 786 786 786 786 786 787 787 787 787 788 788 788 788 789 788 788 789 789 790 790 791 792 793 794 794 795 795 796 796 796 797 797 797 797 796 796 795 796 796 796 796
793 793 793 793 793 793 793 793 792 792 792 792 791 791 790 789 789 788 788 787 787 786 786 786 786 786 786 785 785 786 786 786 786 787 787 787 787 787 787 787 788 788 789 789 788 788 788 789 790 791 792 792 793 793 794 794 794 795 795 794 794 794 793 793 793 793 793 793 793
792 792 792 792 791 791 791 791 791 791 790 790 790 789 789 788 788 787 787 786 786 785 785 785 785 785 785 784 784 785 785 786 786 786 787 787 787 787 786 786 787 788 788 788 788 788 787 788 789 790 790 791 792 792 792 793 793 793 793 792 792 792 792 792 791 791 791 791 791
791 791 791 791 791 790 790 790 789 789 789 789 788 788 787 787 787 786 786 786 785 785 784 784 784 784 784 783 783 783 784 784 785 785 786 786 786 786 786 786 786 787 787 787 787 786 786 787 787 788 789 790 790 790 791 791 791 791 791 791 791 790 790 790 790 790 789 789 789
791 790 790 790 790 789 789 789 788 788 788 787 787 787 786 786 786 785 785 785 784 784 783 783 783 783 783 783 782 782 783 783 783 784 785 785 785 786 786 786 786 786 786 786 786 786 786 786 786 787 787 788 788 789 789 790 790 790 790 790 789 789 789 789 789 788 788 788 788
790 790 789 789 789 788 788 788 787 787 786 786 786 786 785 785 785 784 784 784 783 783 783 782 782 782 782 782 782 782 782 782 782 783 783 784 784 784 785 785 785 786 786 786 785 785 785 785 785 786 786 786 786 787 787 788 788 788 788 788 787 787 787 787 787 787 787 787 787
790 789 789 788 788 787 787 787 786 786 786 785 785 785 784 784 784 783 783 783 782 782 781 781 781 781 781 781 781 781 781 781 781 781 782 782 782 783 783 783 784 784 784 784 784 784 784 784 784 785 785 785 785 785 786 786 786 787 787 786 786 785 785 785 785 786 786 786 786
789 789 788 788 788 787 787 786 786 785 785 784 784 783 783 783 783 782 782 782 781 781 781 780 780 780 780 780 780 780 780 780 780 780 781 781 781 781 781 781 781 782 782 782 782 783 783 783 784 784 784 784 784 784 784 784 785 785 786 785 785 784 784 783 784 785 785 786 786
789 789 788 788 787 787 786 786 785 785 784 784 783 782 782 782 781 781 781 781 780 780 780 779 779 779 779 778 779 779 779 779 779 779 779 779 779 779 780 780 780 780 780 780 781 781 781 782 783 783 783 782 782 782 782 783 783 784 784 784 783 783 782 783 783 784 785 785 785
788 788 788 787 787 786 786 786 785 784 784 783 782 782 781 781 780 780 780 779 779 779 778 778 778 778 777 777 777 777 777 777 777 777 777 777 778 778 778 778 778 778 778 778 778 779 779 780 781 781 781 781 781 781 781 781 781 782 782 782 781 781 781 782 782 783 784 784 784
788 787 787 786 786 786 785 785 784 784 783 783 782 781 781 780 779 779 778 778 778 777 777 777 777 776 776 776 776 776 776 776 776 776 776 776 776 776 776 776 776 776 776 776 776 777 777 778 778 779 779 779 779 779 780 780 780 780 780 780 780 780 780 781 781 782 783 783 783
787 787 786 786 785 785 784 784 783 783 782 782 781 781 780 779 778 778 777 777 776 776 776 776 776 775 775 775 775 775 774 774 774 774 774 774 774 774 774 774 775 775 775 775 775 775 775 776 776 777 777 777 778 778 778 778 778 778 778 778 777 777 778 779 780 781 781 782 782
787 786 786 785 785 784 783 783 782 781 781 781 780 780 779 778 778 777 776 776 775 775 775 774 774 774 774 773 773 773 773 773 772 772 772 772 772 772 772 772 773 773 773 773 773 773 774 774 775 775 776 776 776 776 776 776 776 776 776 776 776 776 776 777 778 779 780 781 781
786 786 785 784 784 783 783 782 781 781 780 779 779 778 778 777 776 776 775 775 774 774 773 773 773 772 772 772 771 771 771 771 771 771 771 771 771 771 771 771 771 771 771 772 772 772 772 772 773 773 774 774 774 774 775 775 775 775 775 775 775 775 776 776 777 778 779 779 779
785 785 784 784 783 782 782 781 781 780 779 778 777 777 776 776 775 775 774 774 773 773 772 771 771 771 771 770 770 770 770 770 770 769 769 769 770 770 769 770 770 770 770 770 770 771 771 771 771 772 772 772 773 773 773 773 773 773 773 773 774 774 775 775 776 776 777 777 778
785 784 783 783 782 781 781 780 780 779 778 777 776 776 775 774 774 773 773 772 772 771 771 770 770 769 769 768 768 768 768 768 768 768 768 768 768 768 768 768 768 769 769 769 769 769 769 770 770 770 771 771 771 771 771 771 771 771 772 772 772 773 773 774 775 775 776 776 776
784 783 783 782 781 781 780 779 779 778 777 776 776 775 774 773 773 772 771 771 771 770 769 769 768 768 767 767 767 767 767 767 767 767 767 767 767 767 767 767 767 767 767 767 768 768 768 768 768 769 769 769 769 769 769 770 770 770 770 771 771 771 772 773 773 774 774 774 774
784 783 782 781 781 780 779 778 778 777 776 775 775 774 773 772 771 771 770 770 769 769 768 767 767 767 766 766 766 766 766 766 766 766 766 766 766 766 766 766 766 766 766 766 766 766 766 766 767 767 767 767 767 767 767 768 768 769 769 769 770 770 771 771 771 772 772 772 772
783 782 782 781 780 779 779 778 777 776 775 774 773 773 772 771 771 770 769 768 768 767 766 766 766 765 765 765 765 764 764 764 764 764 764 764 764 764 764 764 764 764 764 764 764 765 765 765 765 766 766 766 766 766 766 766 767 767 768 768 769 769 769 770 770 770 770 770 770
783 782 781 781 780 779 778 777 776 775 774 773 773 772 771 770 769 769 768 767 766 766 766 765 765 764 764 764 763 763 763 762 762 762 762 762 762 762 762 762 762 762 762 763 763 763 763 763 763 764 764 764 764 765 765 765 766 766 766 767 767 768 768 768 768 768 768 768 768
782 782 781 780 779 778 777 776 776 775 774 773 772 771 770 769 768 767 767 766 765 765 764 764 763 763 763 762 762 762 761 761 761 760 760 760 760 760 760 760 760 761 761 761 761 761 761 761 762 762 762 763 763 763 764 764 765 765 766 766 766 766 766 766 766 766 766 766 766
782 781 780 779 779 778 777 776 775 774 773 772 771 770 769 768 767 766 766 765 764 763 763 762 762 762 761 761 761 761 760 760 759 759 759 758 758 758 758 758 758 758 759 759 759 759 759 760 760 761 761 761 762 762 763 763 764 764 765 765 765 765 765 765 765 765 765 765 764
781 780 779 778 778 777 776 775 774 773 772 771 770 769 768 767 766 766 765 764 763 762 761 761 761 760 760 760 759 759 759 758 758 757 757 757 756 756 756 756 756 756 756 756 756 757 758 758 759 759 760 760 761 761 762 762 763 763 763 763 763 763 763 763 763 763 763 763 763
780 779 778 777 776 776 775 774 773 772 771 770 769 768 767 766 766 765 764 762 762 761 760 760 759 759 759 758 758 757 757 756 756 756 756 755 755 755 755 754 754 754 754 754 755 755 756 757 757 758 758 759 759 760 761 761 761 761 762 761 762 761 761 761 761 761 761 761 761
779 778 777 776 775 774 773 772 771 770 769 768 768 767 766 765 764 763 762 761 761 760 759 759 758 758 757 756 756 756 755 755 755 755 754 754 753 753 753 752 752 752 752 752 753 753 754 755 756 756 757 757 758 759 759 760 760 760 760 760 760 760 760 760 760 759 759 760 760
777 776 776 774 773 772 771 771 770 769 768 767 766 765 764 763 762 761 761 760 759 759 758 758 757 756 756 755 755 754 754 753 753 753 753 752 752 751 751 751 751 751 750 751 751 751 752 753 754 755 755 756 756 757 757 758 758 758 758 758 758 758 758 758 758 758 758 758 758
776 775 774 773 772 771 770 769 768 767 766 765 764 763 762 761 760 760 759 758 757 757 756 756 756 755 754 754 753 753 752 752 751 751 751 751 750 750 749 749 749 749 748 749 749 750 751 751 752 753 753 754 755 755 756 756 756 756 756 756 756 756 756 756 756 756 756 756 756
775 774 773 772 771 770 769 768 767 766 765 764 763 761 761 759 758 758 757 756 756 755 755 754 754 753 753 752 752 751 751 750 750 749 749 748 748 748 747 747 747 746 746 746 747 748 749 749 750 751 751 752 753 753 754 754 754 754 754 754 754 754 754 754 754 754 755 755 755
774 773 772 771 770 768 767 766 766 764 763 762 761 760 759 758 757 756 755 754 754 753 753 752 752 751 751 751 750 750 749 749 748 747 747 746 746 746 746 745 745 745 745 745 745 746 746 747 748 749 750 750 751 751 752 752 752 752 752 752 752 752 752 753 753 753 753 753 753
773 772 771 770 768 767 766 765 764 763 762 761 760 759 758 756 755 754 753 752 751 751 751 750 750 749 749 749 749 748 747 747 746 746 745 745 745 744 744 743 743 742 742 743 743 744 745 745 746 747 748 748 749 749 750 750 750 750 750 750 750 751 751 751 751 751 751 751 752
772 771 770 769 767 766 765 764 763 762 761 760 758 757 756 756 754 753 752 751 750 749 748 748 747 747 746 746 746 746 746 745 744 744 743 743 743 742 742 741 741 740 740 741 741 742 742 743 744 745 746 746 747 747 748 748 748 748 748 748 749 749 749 749 749 749 750 750 750
771 771 769 768 766 765 764 763 762 761 760 758 757 756 755 754 753 752 751 750 748 747 746 745 745 744 744 744 743 743 743 743 743 742 742 741 741 740 740 739 739 738 738 738 739 740 740 741 742 743 744 744 745 745 746 746 746 746 746 747 747 747 747 747 748 748 748 748 748
771 770 768 767 765 764 763 762 761 760 758 757 756 755 753 752 751 750 749 748 747 746 744 743 743 742 741 741 740 740 740 741 741 741 740 740 739 738 737 737 736 736 736 736 737 737 738 739 740 741 741 742 743 743 743 744 744 744 745 745 745 745 746 746 746 746 746 746 746
770 769 767 766 764 763 762 761 760 758 757 756 754 753 752 751 750 748 747 747 746 744 742 741 740 739 738 738 737 737 737 738 738 738 738 737 737 736 735 735 734 734 734 734 735 735 736 736 737 738 739 740 741 741 741 742 742 742 742 743 743 743 744 744 744 744 744 744 745
768 767 766 765 763 762 761 759 758 757 756 754 753 751 750 749 748 747 746 745 744 742 741 739 738 736 736 736 735 734 734 734 734 735 735 735 734 734 733 733 732 732 732 732 732 733 733 734 735 736 737 738 738 739 739 740 740 740 741 741 741 741 742 742 742 742 742 742 743
766 766 765 763 762 761 759 758 756 755 754 753 751 750 748 747 746 745 744 743 741 740 739 737 736 734 734 733 733 732 731 731 731 731 731 732 732 732 731 731 730 730 730 730 730 730 731 732 733 734 735 736 736 736 737 737 738 738 738 739 739 740 740 740 740 740 741 741 741
765 764 763 762 761 759 758 756 755 753 752 751 750 748 747 746 744 743 741 741 739 738 737 735 734 732 732 731 730 729 728 727 727 727 728 728 729 729 729 729 728 728 727 727 727 728 729 729 730 731 732 733 734 734 735 735 736 736 736 736 737 737 738 738 738 738 739 740 740
Wind_Speed
18 17 17 17 16 16 15 16 17 17 17 17 18 18 18 18 19 19 19 19 20 20 21 22 23 23 23 22 22 21 20 19 17 17 16 16 16 17 17 17 16 15 15 15 15 16 17 19 21 22 21 19 18 19 19 18 17 17 17 17 17 18 18 17 16 16 16 15 15
17 17 18 18 18 17 17 16 17 17 17 17 17 17 17 17 18 18 18 19 20 21 22 23 23 23 23 23 23 22 21 20 18 17 17 17 17 17 17 17 17 17 18 18 19 19 20 21 22 22 21 19 19 19 20 20 20 18 17 16 15 16 17 17 17 17 16 15 15
14 15 15 16 16 16 16 16 16 16 17 18 17 17 16 16 16 16 16 17 18 19 20 21 22 22 22 23 23 23 23 22 20 18 18 18 18 18 18 18 18 18 18 20 22 23 23 24 24 23 21 19 19 19 20 21 21 20 18 18 18 18 18 18 17 16 15 15 15
12 12 12 13 14 14 15 15 15 16 16 16 16 17 17 17 16 16 16 16 16 16 17 18 18 19 20 22 23 23 23 23 22 20 19 19 19 18 18 18 18 19 20 22 24 25 25 24 24 22 21 19 19 19 20 21 22 21 21 23 23 21 20 18 17 16 15 15 15
12 12 12 12 12 13 13 14 15 15 15 15 16 17 18 18 18 18 17 17 16 16 16 16 16 17 18 20 21 22 22 22 21 21 21 20 20 19 18 18 19 20 21 22 23 24 23 23 22 21 20 20 20 20 21 21 21 21 22 24 24 22 20 18 17 17 17 16 15
10 11 11 12 12 13 13 13 14 15 15 16 16 17 17 17 17 18 18 18 17 16 16 15 15 16 17 19 19 20 20 19 19 20 21 21 21 21 20 20 21 21 22 22 22 22 21 21 20 20 21 21 21 21 21 21 21 21 21 21 21 20 19 18 18 18 18 17 15
6 7 8 9 10 11 11 12 12 13 13 14 16 16 17 16 16 16 17 17 16 16 15 14 14 15 16 18 18 19 18 18 18 19 19 20 20 21 22 22 23 23 23 22 21 21 20 20 20 21 21 22 22 22 22 22 21 20 20 19 19 19 18 18 18 19 18 16 14
3 4 4 5 6 7 8 9 10 11 12 13 14 15 15 15 15 15 15 15 15 15 14 14 14 15 16 17 18 19 19 19 19 20 20 19 19 19 19 21 22 23 23 23 22 21 20 20 21 21 22 23 23 22 22 22 21 20 19 19 18 18 18 17 17 17 16 14 13
3 3 4 4 5 5 6 7 8 10 11 12 13 14 14 15 15 15 15 14 14 14 14 14 15 15 16 17 18 19 20 20 20 21 22 21 20 19 19 19 20 22 23 23 23 22 21 21 22 22 23 24 23 23 22 22 21 20 19 19 18 18 18 17 17 16 14 13 13
4 5 5 5 6 6 6 7 8 9 10 12 13 13 14 14 15 14 14 14 13 13 14 15 16 16 16 17 19 20 20 21 21 22 23 23 23 22 22 22 22 22 23 23 23 23 23 23 24 25 26 26 26 24 23 22 21 20 20 19 18 18 17 17 16 15 14 13 13
6 7 7 8 8 8 8 8 9 10 11 12 12 13 13 13 14 14 14 13 13 13 14 15 16 16 17 18 20 21 21 22 22 23 24 24 25 25 25 25 25 25 25 25 24 24 24 24 24 26 27 28 28 26 24 23 21 21 20 20 19 17 16 16 16 16 15 14 13
7 8 8 9 9 10 10 10 11 11 12 12 13 13 13 13 13 13 13 13 14 14 15 15 16 17 18 20 21 22 23 23 24 25 25 26 26 27 27 27 27 27 27 27 27 26 25 25 25 26 26 27 26 25 24 23 22 21 20 20 19 17 16 15 16 16 16 15 14
7 7 8 9 10 10 11 11 12 12 13 13 13 14 14 14 14 14 14 14 15 15 15 15 15 16 18 19 20 22 23 24 25 26 26 27 27 28 28 28 28 28 28 28 28 28 27 27 27 27 27 26 25 24 23 22 22 21 21 20 18 17 15 14 15 16 16 16 16
8 8 8 8 9 10 11 12 12 13 13 14 14 14 14 15 15 15 15 15 15 15 15 15 15 16 18 18 19 20 22 23 25 26 26 27 28 28 28 28 29 29 28 28 28 28 27 27 28 28 27 26 25 24 24 23 22 21 21 20 18 16 15 15 15 16 16 16 16
10 9 9 9 9 9 10 11 12 13 14 14 14 14 14 15 16 16 16 16 16 15 15 14 15 16 17 18 18 19 20 21 22 23 25 26 27 27 28 28 28 28 28 28 28 28 27 27 27 27 26 26 25 24 24 23 22 21 20 19 18 17 16 16 16 16 17 16 16
12 12 11 11 11 11 11 11 12 13 14 14 14 14 14 15 15 16 16 16 16 16 16 15 15 15 16 17 17 18 18 18 19 20 22 24 25 26 26 27 27 28 28 27 27 27 27 27 26 26 25 25 24 24 23 22 21 20 20 19 18 18 18 18 18 18 18 17 15
13 13 13 13 12 12 12 12 13 14 14 15 15 15 15 15 15 16 16 17 17 17 17 16 16 16 16 17 18 18 17 17 18 19 20 22 23 24 25 25 26 26 27 27 27 27 26 26 26 25 25 24 24 24 23 22 21 20 20 19 18 18 18 18 18 18 18 17 16
15 15 15 15 14 14 14 14 14 14 15 16 16 16 16 16 16 16 16 17 17 17 17 17 17 17 17 17 18 18 17 17 18 18 19 20 20 21 22 23 24 25 25 25 26 26 26 26 25 25 25 24 24 23 22 22 21 20 20 19 19 18 18 18 18 18 17 17 16
16 17 17 17 17 16 16 15 15 15 16 16 17 17 18 18 18 18 17 17 17 17 17 18 18 18 18 18 18 18 17 17 17 18 18 18 18 19 20 21 22 23 23 24 24 24 25 25 25 25 25 24 23 22 22 21 21 20 20 19 19 19 18 18 18 17 17 16 16
17 17 18 19 19 19 18 18 17 17 17 17 17 18 18 19 19 19 19 18 18 17 17 18 18 18 18 18 18 18 18 17 17 17 17 17 18 18 19 20 21 21 22 22 23 23 24 24 24 24 24 23 22 22 21 21 21 21 20 20 20 20 19 18 18 17 16 16 16
17 18 19 20 20 20 20 20 19 19 18 18 18 18 18 19 20 20 20 20 19 18 18 18 18 18 19 19 19 18 18 18 18 18 18 18 18 19 20 20 20 21 22 22 22 22 23 23 23 23 23 22 22 22 22 21 21 21 21 21 21 21 20 19 18 17 17 17 17
18 19 20 20 20 20 21 21 21 21 20 20 19 19 19 19 19 20 20 21 20 20 19 19 19 19 19 19 19 19 19 19 19 19 19 19 19 19 20 20 21 21 22 22 22 23 23 22 23 23 23 22 22 22 22 22 22 22 22 22 21 21 20 19 18 18 18 18 18
19 20 20 20 20 20 21 21 21 22 21 21 21 20 19 19 19 20 21 21 21 21 20 20 19 19 19 19 19 19 19 20 20 20 20 20 20 20 20 21 21 21 22 22 22 23 23 23 23 23 23 22 22 22 22 22 22 22 22 21 21 20 19 19 18 18 19 19 20
19 20 20 20 20 21 21 21 21 22 22 22 21 21 20 20 20 20 20 21 22 22 21 20 20 19 19 20 20 20 21 21 21 21 21 21 21 21 21 21 21 21 22 22 22 23 23 23 23 23 22 22 22 22 22 23 22 22 21 20 19 19 18 18 18 19 19 19 20
19 19 19 20 20 21 21 21 21 22 22 22 21 21 21 20 20 20 20 21 22 22 22 21 20 19 19 20 21 21 22 22 23 23 23 23 23 22 22 21 21 21 20 20 22 23 24 24 23 22 22 22 21 22 22 22 22 21 20 19 18 17 17 17 17 17 18 18 18
18 18 19 19 20 21 21 21 21 22 22 21 21 21 21 20 20 20 20 21 22 22 22 21 20 20 19 20 21 22 23 23 24 24 24 24 24 23 22 22 21 20 20 20 22 23 24 24 23 22 22 21 21 21 21 21 21 20 19 18 17 16 16 16 16 16 16 16 16
18 18 18 19 19 20 20 20 20 21 21 21 21 21 21 21 20 20 21 21 22 23 22 22 21 20 20 20 22 23 24 25 25 25 25 25 24 24 23 23 22 21 21 22 23 24 24 24 23 22 22 22 21 21 20 19 19 18 18 17 17 17 17 17 16 16 16 15 15
17 17 18 18 19 19 19 19 20 20 21 21 22 22 21 21 21 21 21 22 22 22 22 21 21 20 20 20 21 24 25 26 25 24 24 24 24 24 24 23 22 21 22 23 24 24 24 24 23 23 22 22 21 20 19 18 17 17 17 17 17 17 17 17 17 16 15 15 15
17 17 17 18 19 19 20 19 19 20 20 21 22 22 22 22 22 22 22 23 22 22 21 20 20 20 19 20 22 23 25 26 25 24 23 24 24 24 24 24 23 23 23 24 24 24 24 24 24 23 23 22 21 19 18 17 17 16 17 17 17 17 17 17 17 16 16 15 15
16 17 17 18 18 19 19 19 19 19 20 21 21 22 23 23 23 23 22 22 22 21 20 20 19 19 19 21 21 22 24 25 25 24 23 24 24 24 24 24 24 23 24 25 25 24 24 24 24 24 24 23 22 20 18 17 17 17 17 17 17 17 17 17 16 16 16 15 15
17 17 17 18 18 19 19 19 19 19 20 20 21 22 22 22 22 22 22 21 21 21 20 20 19 20 21 21 21 22 23 24 24 24 24 24 24 24 25 25 24 24 25 25 25 25 24 24 24 24 24 23 22 20 19 18 18 17 17 17 17 17 17 17 16 16 16 15 15
18 18 18 18 19 19 19 19 19 19 19 20 20 21 21 21 22 22 22 21 20 20 20 20 20 21 21 21 21 22 22 23 24 25 26 26 26 25 25 25 25 24 25 26 26 25 25 24 25 25 24 24 23 21 19 19 18 18 18 18 18 18 18 17 17 16 16 16 15
19 19 19 19 20 20 20 20 20 20 20 20 20 20 21 21 21 22 22 22 20 20 19 20 20 21 21 22 22 22 23 23 24 26 27 28 27 26 26 26 25 25 26 27 27 26 25 25 25 25 25 25 23 22 21 20 19 19 19 19 19 18 18 18 17 17 16 16 16
19 20 20 20 21 21 22 21 21 21 21 21 21 21 21 21 21 21 22 22 21 20 20 20 20 21 21 21 22 23 23 24 24 25 27 27 27 27 26 26 25 26 28 28 27 27 26 25 25 25 25 24 24 24 23 21 20 20 19 19 19 19 19 18 18 18 17 17 17
20 20 21 21 22 22 22 22 22 22 22 21 21 21 21 20 20 21 21 21 21 21 21 21 21 21 21 22 22 23 24 25 25 25 26 27 27 27 27 27 27 28 29 29 28 27 27 26 26 25 25 24 24 23 22 21 20 20 20 20 19 19 19 18 18 18 18 18 18
19 20 20 21 22 22 23 23 23 23 22 22 22 21 21 21 21 21 21 21 20 21 21 22 22 22 22 23 24 24 25 25 25 25 25 26 26 27 28 28 28 29 30 30 29 28 27 27 27 26 25 24 23 22 21 21 20 20 20 20 20 19 18 18 18 18 18 19 19
19 19 20 21 21 22 22 22 22 23 23 22 22 22 22 22 21 21 21 20 20 21 22 22 22 23 23 24 24 25 25 25 25 25 25 26 26 28 29 29 30 30 31 31 30 29 28 28 27 27 25 24 22 21 20 20 19 19 19 19 20 19 18 18 18 18 19 20 20
20 20 20 21 21 22 22 22 22 22 23 23 23 23 23 22 22 21 21 20 20 21 22 23 24 24 25 25 25 26 26 26 26 26 26 27 28 29 30 30 31 32 32 32 31 29 29 28 28 28 26 24 22 21 20 19 19 18 19 19 19 18 18 17 18 19 20 21 21
21 21 21 21 22 22 22 22 22 22 23 23 24 24 23 23 22 22 21 21 21 22 23 24 25 26 26 26 26 27 28 29 29 29 29 29 30 31 31 31 32 33 34 33 32 30 29 29 28 28 27 25 23 21 20 19 18 18 18 18 18 17 17 18 19 20 21 22 23
22 22 22 22 22 22 22 22 23 23 23 23 23 24 24 23 23 23 22 21 21 22 23 25 27 27 27 27 26 27 29 30 31 32 32 33 32 33 33 34 34 34 34 34 33 31 30 29 29 29 28 26 24 22 20 19 18 18 18 18 17 17 17 19 21 22 22 22 23
22 22 22 22 22 22 22 23 23 23 23 23 24 24 24 24 23 23 22 21 22 23 24 25 27 28 28 27 27 28 29 31 31 32 33 34 33 33 34 34 34 34 34 34 34 32 31 30 30 30 29 27 25 23 21 19 19 19 19 18 17 17 17 18 21 22 23 23 22
Wind_Direction
240 239 239 239 239 240 242 245 248 249 250 252 254 256 257 258 259 260 261 262 264 266 269 272 275 276 275 272 268 264 261 260 259 257 252 246 240 235 229 224 220 223 229 232 231 231 231 232 233 233 235 243 256 265 270 274 277 276 272 266 262 259 256 254 251 249 248 248 247
241 241 241 242 243 244 245 248 250 251 252 252 254 256 258 260 261 262 262 263 265 267 269 272 274 275 275 273 269 265 261 258 255 251 245 239 233 229 226 222 221 223 230 237 241 239 235 230 228 228 231 241 252 261 269 274 275 272 266 259 256 254 253 252 251 251 249 246 242
246 246 245 245 245 246 247 249 252 254 255 257 258 260 261 263 264 266 266 266 267 268 268 268 269 270 270 268 266 262 259 256 253 247 239 233 228 225 224 223 222 221 222 229 235 235 231 226 224 225 228 235 243 253 261 266 267 264 258 254 254 254 253 251 250 248 245 240 235
255 255 254 253 252 252 253 255 257 259 261 263 265 265 266 266 267 269 271 272 271 269 266 264 264 264 264 263 262 260 257 255 251 245 237 230 226 225 226 228 228 226 223 222 223 223 222 221 222 226 231 237 242 248 253 257 258 256 253 253 254 254 251 248 244 240 235 233 231
257 257 258 260 260 261 261 262 263 265 267 268 270 270 270 270 271 272 274 275 273 270 267 265 263 260 259 259 259 257 254 251 248 243 237 231 229 230 234 235 234 230 225 221 218 217 218 220 225 231 238 244 248 250 251 252 252 250 249 249 249 248 246 243 239 234 231 231 232
259 259 259 260 260 261 261 262 264 265 266 267 268 269 270 271 273 276 277 278 277 274 270 265 260 255 254 255 255 253 249 244 241 238 235 232 233 235 239 240 238 233 228 223 219 218 221 225 231 238 244 248 250 251 250 249 246 245 244 244 244 244 242 239 237 235 234 234 235
264 266 267 266 264 263 263 265 265 265 265 265 265 266 268 270 273 276 279 280 280 277 272 263 255 250 249 251 251 249 244 239 235 233 231 232 234 236 238 239 239 236 231 227 225 226 228 232 236 242 246 248 248 247 245 244 243 243 243 243 245 244 241 237 237 237 237 238 237
265 273 276 278 278 277 276 275 274 271 268 267 266 266 268 269 271 273 275 276 277 275 271 265 256 250 248 250 250 249 246 242 238 234 233 234 236 238 238 237 235 233 232 231 230 232 234 237 241 243 246 247 246 245 243 243 244 244 244 244 245 243 240 236 237 239 240 240 237
284 289 292 293 293 292 291 289 285 279 274 271 271 271 272 272 272 271 270 270 271 272 271 267 261 255 251 252 253 253 251 248 245 242 239 238 240 241 241 238 235 233 232 232 233 235 238 241 244 246 247 248 247 246 245 245 246 246 246 244 243 241 239 237 238 241 242 241 237
302 303 303 302 301 299 296 293 290 286 282 280 279 279 278 277 275 273 271 268 267 267 267 266 264 259 256 255 255 255 254 252 250 248 246 245 245 246 247 247 244 239 236 234 233 234 237 240 242 245 247 249 249 248 248 247 246 245 244 243 241 239 238 239 240 242 242 241 238
310 307 305 303 301 300 298 296 295 293 291 290 289 288 286 283 280 277 274 270 266 264 263 263 263 262 260 258 257 256 255 254 253 252 251 250 250 251 252 252 251 248 244 240 238 236 236 238 239 241 244 246 248 248 247 247 246 244 242 241 240 239 239 241 242 242 241 240 238
320 313 308 304 301 299 298 297 297 297 296 296 296 295 293 290 287 283 278 272 268 265 263 262 261 261 261 261 260 258 257 255 254 253 253 253 254 254 254 255 255 253 250 247 244 242 241 241 241 241 241 242 244 244 244 245 245 243 241 241 240 239 238 240 243 243 242 240 237
342 327 316 309 303 300 297 296 295 296 296 297 297 296 295 294 292 289 284 279 273 269 266 262 260 259 259 259 259 258 258 256 255 254 254 254 255 255 255 255 255 254 252 250 248 246 245 245 244 242 241 241 242 242 242 241 241 240 240 239 239 238 237 238 242 244 244 242 239
1 348 335 323 314 306 300 296 293 293 292 293 293 293 293 293 292 292 290 286 282 278 273 267 262 259 258 257 257 257 257 256 256 255 254 254 255 254 254 254 254 253 251 250 248 247 246 245 244 242 240 240 240 240 240 239 237 237 237 237 237 236 236 237 240 243 244 243 242
10 2 352 342 333 323 313 303 296 292 290 289 289 289 289 289 289 289 289 289 288 285 281 274 267 263 262 261 258 256 255 254 253 253 253 253 253 252 252 251 251 250 249 248 247 246 245 243 240 239 238 237 237 237 237 236 234 233 233 234 234 233 232 233 237 240 241 241 242
11 5 359 353 347 340 331 320 309 301 294 289 286 285 286 286 285 285 285 287 287 286 283 279 274 270 268 266 262 259 256 253 250 249 249 250 250 250 249 248 247 247 246 245 244 243 241 239 236 234 233 234 234 234 234 233 231 230 230 231 230 230 229 231 235 238 239 239 240
8 4 1 357 352 347 340 331 322 313 304 296 289 285 283 282 282 283 284 285 285 285 284 283 280 277 275 272 270 265 260 254 249 246 246 246 246 246 246 245 245 244 244 242 240 238 236 234 232 231 231 231 231 232 232 232 230 229 229 229 228 228 229 231 234 237 239 240 240
4 1 359 356 352 347 342 336 328 320 312 304 296 289 283 280 280 281 282 283 284 285 285 284 282 280 278 277 275 271 265 257 251 247 245 244 243 243 243 243 242 241 240 238 236 234 232 231 230 229 229 229 230 231 232 232 231 230 229 229 228 229 230 232 234 237 239 241 244
0 358 356 353 350 347 343 338 332 325 318 310 303 295 289 283 280 279 279 281 282 284 284 283 282 280 279 277 275 273 268 260 253 248 245 243 241 239 239 239 239 237 236 234 232 231 231 230 230 229 228 227 228 230 231 231 231 230 229 229 229 229 230 232 235 237 240 243 246
357 355 352 350 348 346 343 339 334 329 322 316 309 302 295 288 283 280 279 279 281 282 282 281 280 278 277 276 274 271 266 260 254 248 244 241 239 237 236 235 235 234 232 230 230 229 230 230 229 228 227 227 227 228 229 230 229 229 228 228 228 229 231 233 235 238 241 245 249
354 351 349 347 346 344 341 338 335 331 326 321 315 308 301 294 288 284 281 280 279 280 279 278 276 275 274 273 271 268 263 258 252 247 243 240 238 237 236 235 234 233 232 231 230 230 229 229 228 228 227 227 228 228 228 227 226 226 226 226 228 230 232 234 237 240 243 248 251
350 348 346 344 342 340 338 336 334 331 328 325 320 315 307 300 293 287 283 280 279 278 277 277 275 273 271 269 267 264 259 255 250 246 243 241 239 239 238 237 236 235 234 233 232 231 231 230 229 229 228 227 227 227 226 224 223 224 224 226 228 231 234 236 239 242 247 250 254
346 345 343 341 339 337 335 333 331 330 328 326 323 319 312 305 297 291 286 282 280 278 278 277 275 272 269 266 263 259 255 251 248 246 244 242 241 241 240 239 238 236 235 235 233 232 231 230 230 228 227 226 225 225 224 223 222 222 224 227 230 233 235 239 242 247 251 255 257
342 341 339 337 336 334 332 330 329 328 328 326 323 320 315 309 302 295 289 284 281 279 278 276 274 272 268 264 260 255 250 247 245 245 246 246 245 244 243 241 240 238 237 236 235 232 231 229 227 226 225 224 224 223 223 222 222 223 225 227 231 234 238 243 248 252 256 259 260
337 336 335 334 333 332 330 329 328 327 326 325 323 320 316 311 306 299 293 287 282 280 278 276 274 271 267 262 257 252 248 245 244 245 247 248 248 246 244 242 241 240 238 236 234 232 230 227 224 223 223 222 222 222 223 223 224 225 227 229 232 237 242 247 251 254 257 259 259
334 332 331 330 329 329 328 327 326 325 325 323 322 320 316 312 307 301 295 290 285 281 279 277 274 269 264 260 255 250 247 245 245 246 247 248 248 247 244 242 241 241 239 236 234 232 229 227 224 222 222 222 221 221 222 224 226 228 230 232 235 240 245 250 253 255 256 256 254
331 329 327 326 326 325 325 324 323 323 323 322 321 319 316 313 308 302 296 291 287 283 280 276 273 268 264 259 254 250 246 245 245 245 246 247 247 246 244 243 242 241 240 238 235 232 230 227 225 224 224 224 223 222 223 224 227 230 232 235 239 243 248 251 254 256 256 254 250
327 325 324 323 322 321 321 321 320 320 320 320 319 318 316 313 308 303 297 293 289 285 281 277 272 269 264 259 254 250 248 246 245 245 245 246 246 245 244 243 242 241 241 240 238 234 230 227 226 226 225 225 225 224 224 226 229 232 235 238 242 246 249 251 253 253 252 250 245
324 323 322 320 319 319 319 318 317 317 316 316 315 315 314 313 309 305 300 296 291 286 282 277 273 269 264 258 255 252 250 247 245 244 244 244 243 243 242 242 242 242 242 242 239 235 230 227 226 226 226 226 225 225 226 229 232 235 237 240 243 246 248 249 249 249 248 245 241
322 321 319 318 317 317 317 316 315 314 313 312 312 312 312 311 309 306 302 298 293 287 282 278 273 268 263 259 256 253 251 248 246 243 242 241 240 240 241 242 241 241 242 242 240 235 230 227 225 225 226 226 226 226 228 232 234 237 239 242 244 246 247 247 246 244 242 240 237
320 319 317 316 315 315 315 315 314 313 312 311 310 309 308 307 305 303 301 297 293 289 284 278 272 267 263 260 257 254 251 248 245 243 240 239 239 239 239 241 240 240 241 241 239 236 231 227 225 224 225 226 227 228 231 234 237 240 242 244 245 246 246 245 243 241 238 236 234
319 318 316 315 314 313 314 314 314 313 311 310 307 306 304 302 300 299 298 295 292 288 283 278 272 268 264 261 257 254 251 248 245 243 241 240 240 239 239 240 239 239 239 239 238 235 231 227 225 225 225 227 228 230 232 236 239 242 245 246 247 246 245 243 241 238 235 233 232
319 318 316 315 313 313 313 314 314 313 311 309 307 304 301 299 298 296 295 293 289 285 281 276 272 269 265 262 259 255 252 249 246 244 243 242 241 240 239 238 238 237 238 238 237 235 231 228 226 225 226 228 229 231 234 237 241 244 247 248 247 246 244 242 239 237 234 231 230
318 317 315 314 313 312 312 313 313 312 311 309 306 303 301 298 296 294 292 290 287 284 280 276 272 268 265 262 260 257 254 251 248 245 244 243 241 240 238 237 237 238 238 239 237 234 231 227 225 225 225 227 230 233 235 239 243 245 247 247 247 245 243 240 237 235 233 231 229
316 315 313 312 311 311 311 311 311 310 309 307 305 303 301 297 294 291 289 287 285 282 279 275 271 268 265 263 260 258 256 253 251 248 245 243 241 240 238 237 237 238 239 240 238 235 231 227 225 224 224 226 230 233 236 240 243 245 246 245 244 242 240 237 235 233 232 231 229
314 313 311 310 309 308 308 308 308 308 306 304 303 302 300 298 294 291 288 285 281 278 276 274 271 268 265 262 260 257 256 254 253 250 247 244 241 240 239 238 238 239 240 241 239 235 231 227 225 224 224 226 229 233 236 239 242 243 243 243 241 239 236 235 233 232 231 230 228
312 311 309 307 306 305 305 305 305 304 302 301 300 299 298 297 295 292 289 285 279 275 273 271 269 266 263 260 258 256 255 254 254 252 250 246 242 240 239 239 239 239 240 241 240 236 232 228 225 224 224 225 228 231 234 237 239 240 240 239 237 235 234 232 232 231 231 229 227
311 309 307 305 304 302 302 301 300 298 298 298 298 297 297 296 294 292 290 285 278 274 271 269 267 265 263 260 258 256 255 254 252 251 250 248 244 242 240 239 239 240 240 241 240 237 233 229 226 224 224 224 226 229 231 233 234 235 235 234 234 232 231 230 230 230 230 228 227
310 308 306 304 302 300 299 298 296 295 295 295 296 296 295 294 293 291 289 284 278 274 271 268 266 265 263 261 258 256 255 254 252 251 250 248 246 244 242 240 240 240 241 241 240 237 234 229 227 225 224 224 225 226 228 229 230 231 231 230 230 229 228 228 228 228 228 228 226
308 307 305 303 301 299 297 295 294 293 293 294 294 294 293 293 291 290 288 284 278 274 270 267 266 265 264 261 258 256 255 255 254 252 251 249 248 246 244 242 241 241 241 241 240 237 234 230 227 225 224 223 223 224 225 226 226 227 227 226 226 225 225 226 227 227 227 227 226
306 305 304 302 300 298 296 295 294 293 293 292 292 292 292 292 291 290 288 284 279 275 271 268 266 265 263 260 257 255 254 254 254 253 252 250 249 247 245 243 242 241 240 240 239 237 234 230 227 225 223 221 221 221 221 222 223 223 223 223 222 221 221 223 225 226 225 225 225